• In Hungary
  • List of Countries
  • For 7 days
  • Water Temperature
  • Satellite Maps
  • Weather Map
  • News
  • Weather Widgets
  • user-avatar
    Login

    Hourly Weather Koprivshtitsa

    Today, 19 July, Thursday

    Time Temperature Precipitation Wind Pressure Humidity
    00:00 +12°C° 0 mm 3 mps 655 mmHg 78%
    01:00 +12°C° 0 mm 3 mps 655 mmHg 78%
    02:00 +12°C° 0 mm 3 mps 655 mmHg 78%
    03:00 +12°C° 0 mm 3 mps 655 mmHg 78%
    04:00 +12°C° 0 mm 3 mps 655 mmHg 78%
    05:00 +11°C° 0 mm 3 mps 655 mmHg 78%
    06:00 +13°C° 0 mm 3 mps 655 mmHg 75%
    07:00 +14°C° 0 mm 4 mps 655 mmHg 72%
    08:00 +15°C° 0 mm 4 mps 656 mmHg 69%
    09:00 +17°C° 0 mm 4 mps 656 mmHg 67%
    10:00 +18°C° 0 mm 4 mps 657 mmHg 64%
    11:00 +19°C° 0 mm 4 mps 657 mmHg 62%
    12:00 +19°C° 0.1 mm 4 mps 657 mmHg 60%
    13:00 +20°C° 0.1 mm 4 mps 658 mmHg 58%
    14:00 +21°C° 0.1 mm 4 mps 658 mmHg 56%
    15:00 +21°C° 0.1 mm 4 mps 658 mmHg 57%
    16:00 +20°C° 0.1 mm 4 mps 658 mmHg 59%
    17:00 +20°C° 0.1 mm 4 mps 658 mmHg 61%
    18:00 +19°C° 0.1 mm 4 mps 657 mmHg 66%
    19:00 +17°C° 0.1 mm 3 mps 657 mmHg 72%
    20:00 +16°C° 0.1 mm 3 mps 657 mmHg 77%
    21:00 +15°C° 0 mm 2 mps 657 mmHg 79%
    22:00 +14°C° 0 mm 2 mps 657 mmHg 81%
    23:00 +13°C° 0 mm 2 mps 657 mmHg 83%

    Tomorrow, 20 July, Friday

    Time Temperature Precipitation Wind Pressure Humidity
    00:00 +13°C° 0 mm 2 mps 657 mmHg 84%
    01:00 +13°C° 0 mm 2 mps 657 mmHg 85%
    02:00 +13°C° 0 mm 2 mps 657 mmHg 86%
    03:00 +13°C° 0 mm 2 mps 657 mmHg 87%
    04:00 +13°C° 0 mm 2 mps 657 mmHg 87%
    05:00 +12°C° 0 mm 2 mps 657 mmHg 87%
    06:00 +14°C° 0 mm 2 mps 657 mmHg 82%
    07:00 +16°C° 0 mm 2 mps 658 mmHg 76%
    08:00 +18°C° 0 mm 3 mps 659 mmHg 70%
    09:00 +19°C° 0 mm 3 mps 659 mmHg 65%
    10:00 +21°C° 0 mm 3 mps 659 mmHg 60%
    11:00 +22°C° 0 mm 3 mps 660 mmHg 55%
    12:00 +24°C° 0.4 mm 3 mps 660 mmHg 54%
    13:00 +24°C° 0.4 mm 3 mps 660 mmHg 52%
    14:00 +25°C° 0.4 mm 3 mps 660 mmHg 51%
    15:00 +25°C° 0.4 mm 3 mps 660 mmHg 51%
    16:00 +24°C° 0.4 mm 3 mps 659 mmHg 52%
    17:00 +24°C° 0.4 mm 3 mps 659 mmHg 53%
    18:00 +21°C° 0.3 mm 2 mps 659 mmHg 60%
    19:00 +19°C° 0.3 mm 2 mps 659 mmHg 66%
    20:00 +18°C° 0.3 mm 2 mps 659 mmHg 73%
    21:00 +17°C° 0.1 mm 2 mps 659 mmHg 75%
    22:00 +16°C° 0.1 mm 2 mps 659 mmHg 78%
    23:00 +15°C° 0.1 mm 2 mps 659 mmHg 81%

    Day after tomorrow, 21 July, Saturday

    Time Temperature Precipitation Wind Pressure Humidity
    00:00 +15°C° 0 mm 2 mps 659 mmHg 81%
    01:00 +14°C° 0 mm 2 mps 658 mmHg 82%
    02:00 +14°C° 0 mm 2 mps 658 mmHg 82%
    03:00 +13°C° 0 mm 2 mps 658 mmHg 81%
    04:00 +13°C° 0 mm 2 mps 658 mmHg 80%
    05:00 +13°C° 0 mm 2 mps 658 mmHg 79%
    06:00 +15°C° 0 mm 2 mps 659 mmHg 73%
    07:00 +17°C° 0 mm 2 mps 659 mmHg 66%
    08:00 +19°C° 0 mm 2 mps 660 mmHg 60%
    09:00 +20°C° 0 mm 2 mps 660 mmHg 54%
    10:00 +22°C° 0 mm 3 mps 661 mmHg 48%
    11:00 +24°C° 0 mm 3 mps 661 mmHg 42%
    12:00 +25°C° 0 mm 3 mps 661 mmHg 39%
    13:00 +26°C° 0 mm 3 mps 661 mmHg 36%
    14:00 +27°C° 0 mm 3 mps 661 mmHg 33%
    15:00 +27°C° 0 mm 3 mps 661 mmHg 34%
    16:00 +27°C° 0 mm 3 mps 661 mmHg 34%
    17:00 +27°C° 0 mm 3 mps 660 mmHg 34%
    18:00 +24°C° 0 mm 2 mps 660 mmHg 41%
    19:00 +21°C° 0 mm 2 mps 659 mmHg 47%
    20:00 +19°C° 0 mm 1 mps 659 mmHg 54%
    21:00 +18°C° 0 mm 1 mps 658 mmHg 54%
    22:00 +17°C° 0 mm 2 mps 658 mmHg 55%
    23:00 +16°C° 0 mm 2 mps 658 mmHg 56%

    22 July, Sunday

    Time Temperature Precipitation Wind Pressure Humidity
    00:00 +16°C° 0 mm 2 mps 658 mmHg 56%
    01:00 +15°C° 0 mm 2 mps 658 mmHg 56%
    02:00 +15°C° 0 mm 2 mps 658 mmHg 56%
    03:00 +15°C° 0 mm 2 mps 658 mmHg 56%
    04:00 +15°C° 0 mm 2 mps 658 mmHg 57%
    05:00 +14°C° 0 mm 2 mps 658 mmHg 57%
    06:00 +18°C° 0 mm 1 mps 658 mmHg 54%
    07:00 +20°C° 0 mm 1 mps 659 mmHg 50%
    08:00 +22°C° 0 mm 1 mps 660 mmHg 47%
    09:00 +23°C° 0 mm 1 mps 660 mmHg 43%
    10:00 +25°C° 0 mm 2 mps 660 mmHg 39%
    11:00 +27°C° 0 mm 2 mps 660 mmHg 36%
    12:00 +28°C° 0 mm 2 mps 660 mmHg 34%
    13:00 +28°C° 0 mm 2 mps 660 mmHg 32%
    14:00 +29°C° 0 mm 2 mps 660 mmHg 30%
    15:00 +29°C° 0 mm 2 mps 659 mmHg 31%
    16:00 +29°C° 0 mm 2 mps 659 mmHg 32%
    17:00 +29°C° 0 mm 1 mps 659 mmHg 33%
    18:00 +26°C° 0 mm 1 mps 658 mmHg 39%
    19:00 +24°C° 0 mm 2 mps 657 mmHg 45%
    20:00 +20°C° 0 mm 2 mps 657 mmHg 51%
    21:00 +19°C° 0 mm 2 mps 657 mmHg 55%
    22:00 +18°C° 0 mm 2 mps 657 mmHg 58%
    23:00 +18°C° 0 mm 2 mps 656 mmHg 61%

    23 July, Monday

    Time Temperature Precipitation Wind Pressure Humidity
    00:00 +17°C° 0 mm 2 mps 656 mmHg 64%
    01:00 +17°C° 0 mm 2 mps 656 mmHg 66%
    02:00 +16°C° 0 mm 2 mps 656 mmHg 69%
    03:00 +16°C° 0.1 mm 1 mps 655 mmHg 71%
    04:00 +15°C° 0.1 mm 1 mps 655 mmHg 73%
    05:00 +15°C° 0.1 mm 1 mps 655 mmHg 75%
    06:00 +16°C° 0 mm 1 mps 655 mmHg 71%
    07:00 +19°C° 0 mm 1 mps 655 mmHg 68%
    08:00 +21°C° 0 mm 1 mps 656 mmHg 64%
    09:00 +21°C° 0.2 mm 1 mps 656 mmHg 62%
    10:00 +22°C° 0.2 mm 1 mps 656 mmHg 60%
    11:00 +23°C° 0.2 mm 1 mps 656 mmHg 58%
    12:00 +23°C° 0.3 mm 2 mps 656 mmHg 56%
    13:00 +24°C° 0.3 mm 2 mps 656 mmHg 55%
    14:00 +24°C° 0.3 mm 2 mps 655 mmHg 54%
    15:00 +24°C° 0.6 mm 2 mps 655 mmHg 55%
    16:00 +23°C° 0.6 mm 2 mps 655 mmHg 57%
    17:00 +23°C° 0.6 mm 2 mps 655 mmHg 59%
    18:00 +20°C° 2 mm 2 mps 655 mmHg 68%
    19:00 +19°C° 2 mm 1 mps 655 mmHg 77%
    20:00 +16°C° 2 mm 1 mps 654 mmHg 86%
    21:00 +16°C° 0 mm 1 mps 654 mmHg 86%
    22:00 +15°C° 0 mm 1 mps 655 mmHg 87%
    23:00 +15°C° 0 mm 1 mps 655 mmHg 88%

    24 July, Tuesday

    Time Temperature Precipitation Wind Pressure Humidity
    00:00 +15°C° 0.1 mm 1 mps 655 mmHg 88%
    01:00 +14°C° 0.1 mm 1 mps 655 mmHg 87%
    02:00 +14°C° 0.1 mm 1 mps 655 mmHg 87%
    03:00 +14°C° 0.1 mm 1 mps 655 mmHg 88%
    04:00 +13°C° 0.1 mm 1 mps 655 mmHg 89%
    05:00 +13°C° 0.1 mm 1 mps 655 mmHg 90%
    06:00 +15°C° 0.1 mm 1 mps 655 mmHg 85%
    07:00 +16°C° 0.1 mm 1 mps 656 mmHg 81%
    08:00 +19°C° 0.1 mm 1 mps 657 mmHg 76%
    09:00 +20°C° 0.5 mm 1 mps 657 mmHg 70%
    10:00 +21°C° 0.5 mm 1 mps 658 mmHg 64%
    11:00 +23°C° 0.5 mm 2 mps 658 mmHg 59%
    12:00 +23°C° 1.2 mm 2 mps 658 mmHg 59%
    13:00 +23°C° 1.2 mm 2 mps 658 mmHg 59%
    14:00 +24°C° 1.2 mm 2 mps 658 mmHg 58%
    15:00 +23°C° 1.5 mm 2 mps 658 mmHg 61%
    16:00 +23°C° 1.5 mm 2 mps 658 mmHg 63%
    17:00 +21°C° 1.5 mm 2 mps 658 mmHg 66%
    18:00 +20°C° 0.7 mm 2 mps 658 mmHg 70%
    19:00 +19°C° 0.7 mm 1 mps 658 mmHg 74%
    20:00 +18°C° 0.7 mm 1 mps 658 mmHg 79%
    21:00 +16°C° 0.4 mm 1 mps 658 mmHg 81%
    22:00 +15°C° 0.4 mm 1 mps 658 mmHg 83%
    23:00 +15°C° 0.4 mm 1 mps 658 mmHg 85%
    Show more